Date String (YYYY-MM-DD hh:mm:ss) UTC,Instrument flags,Ambient pressure (hPa),Sample flow (lpm),Bypass flow (lpm),Sample temperature (°C),Ambient temperature (°C),ASC tube jacket temperature (°C),LED temperature (°C),Box temperature (°C),Sample RH (%),Span deviation,Mass concentration (μg/m³),Mass concentration (μg/m³),Mass concentration (μg/m³)
DateTimeUTC,F1_M11,P_M11,Q1_M11,Q2_M11,T1_M11,T2_M11,T3_M11,T4_M11,T5_M11,U1_M11,ZSPAN_M11,X0_M11,X2_M11,X1_M11
2022-12-05 10:00:00,,0816.7,5.01,0.00,23.4,22.1,00.0,32.3,25.2,13.8,0000.0,0005.04,0002.69,0002.53
2022-12-05 10:01:00,,0816.6,5.01,0.00,23.4,22.1,00.0,32.3,25.2,13.7,0000.0,0005.13,0002.77,0002.61
2022-12-05 10:02:00,,0816.6,4.98,0.00,23.4,22.2,00.0,32.3,25.3,13.5,0000.0,0005.10,0002.79,0002.63
2022-12-05 10:03:00,,0816.5,5.01,0.00,23.4,22.2,00.0,32.3,25.3,13.3,0000.0,0005.11,0002.81,0002.63
2022-12-05 10:04:00,,0816.8,5.00,0.00,23.4,22.2,00.0,32.3,25.3,13.0,0000.0,0005.10,0002.76,0002.58
2022-12-05 10:05:00,,0816.9,5.00,0.00,23.4,22.2,00.0,32.3,25.3,13.1,0000.0,0005.09,0002.72,0002.52
2022-12-05 10:06:00,,0816.5,5.00,0.00,23.4,22.2,00.0,32.3,25.3,13.6,0000.0,0004.04,0002.72,0002.52
2022-12-05 10:07:00,,0816.5,5.00,0.00,23.5,22.3,00.0,32.3,25.3,13.6,0000.0,0003.82,0002.74,0002.54
2022-12-05 10:08:00,,0816.4,4.99,0.00,23.5,22.3,00.0,32.3,25.4,13.6,0000.0,0003.84,0002.73,0002.51
2022-12-05 10:09:00,,0816.5,5.02,0.00,23.5,22.2,00.0,32.4,25.4,13.2,0000.0,0003.85,0002.70,0002.46
2022-12-05 10:10:00,,0816.4,5.00,0.00,23.5,22.2,00.0,32.4,25.3,13.0,0000.0,0003.55,0002.64,0002.39
2022-12-05 10:11:00,,0816.5,4.99,0.00,23.5,22.1,00.0,32.4,25.3,13.4,0000.0,0003.34,0002.60,0002.37
2022-12-05 10:12:00,,0816.7,4.99,0.00,23.4,22.1,00.0,32.4,25.3,13.4,0000.0,0004.17,0002.58,0002.33
2022-12-05 10:13:00,,0816.5,5.00,0.00,23.4,22.1,00.0,32.3,25.3,13.3,0000.0,0004.50,0002.57,0002.33
2022-12-05 10:14:00,,0816.4,5.01,0.00,23.5,22.1,00.0,32.3,25.3,13.3,0000.0,0004.72,0002.58,0002.33
2022-12-05 10:15:00,,0816.4,5.01,0.00,23.5,22.2,00.0,32.3,25.4,13.2,0000.0,0004.81,0002.60,0002.34
2022-12-05 10:16:00,,0816.4,5.01,0.00,23.5,22.2,00.0,32.4,25.4,13.3,0000.0,0004.87,0002.63,0002.37
2022-12-05 10:17:00,,0816.4,5.00,0.00,23.5,22.2,00.0,32.4,25.4,13.4,0000.0,0004.94,0002.67,0002.40
2022-12-05 10:18:00,,0816.5,5.00,0.00,23.5,22.2,00.0,32.4,25.4,13.3,0000.0,0004.96,0002.63,0002.36
2022-12-05 10:19:00,,0816.5,4.99,0.00,23.5,22.1,00.0,32.4,25.4,13.2,0000.0,0004.97,0002.60,0002.33
2022-12-05 10:20:00,,0816.4,4.99,0.00,23.5,22.1,00.0,32.4,25.3,13.3,0000.0,0004.96,0002.60,0002.32
2022-12-05 10:21:00,,0816.3,5.01,0.00,23.5,22.0,00.0,32.4,25.3,13.3,0000.0,0004.93,0002.63,0002.36
2022-12-05 10:22:00,,0816.5,5.00,0.00,23.4,22.0,00.0,32.4,25.3,13.0,0000.0,0004.78,0002.59,0002.33
2022-12-05 10:23:00,,0816.5,5.00,0.00,23.4,22.0,00.0,32.4,25.3,13.1,0000.0,0003.97,0002.57,0002.30
2022-12-05 10:24:00,,0816.4,5.00,0.00,23.4,22.1,00.0,32.3,25.3,12.9,0000.0,0003.58,0002.53,0002.26
2022-12-05 10:25:00,,0816.5,5.02,0.00,23.4,22.1,00.0,32.3,25.3,12.7,0000.0,0003.26,0002.44,0002.19
2022-12-05 10:26:00,,0816.5,4.99,0.00,23.4,22.1,00.0,32.4,25.3,12.7,0000.0,0003.07,0002.34,0002.11
2022-12-05 10:27:00,,0816.7,4.99,0.00,23.5,22.2,00.0,32.4,25.3,12.9,0000.0,0002.93,0002.26,0002.04
2022-12-05 10:28:00,,0816.7,5.02,0.00,23.5,22.2,00.0,32.4,25.3,12.8,0000.0,0002.79,0002.14,0001.94
2022-12-05 10:29:00,,0816.3,4.99,0.00,23.5,22.2,00.0,32.4,25.4,12.6,0000.0,0002.59,0002.01,0001.81
2022-12-05 10:30:00,,0816.2,4.99,0.00,23.5,22.2,00.0,32.4,25.3,12.5,0000.0,0002.43,0001.91,0001.71
2022-12-05 10:31:00,,0816.2,5.00,0.00,23.5,22.2,00.0,32.4,25.3,12.5,0000.0,0002.26,0001.78,0001.61
2022-12-05 10:32:00,,0816.2,5.00,0.00,23.5,22.2,00.0,32.4,25.3,12.6,0000.0,0002.13,0001.68,0001.50
2022-12-05 10:33:00,,0816.2,5.00,0.00,23.5,22.2,00.0,32.4,25.4,12.6,0000.0,0002.05,0001.62,0001.44
2022-12-05 10:34:00,,0816.2,5.00,0.00,23.5,22.2,00.0,32.4,25.3,12.5,0000.0,0001.87,0001.51,0001.37
2022-12-05 10:35:00,,0816.2,5.01,0.00,23.5,22.2,00.0,32.4,25.3,12.5,0000.0,0001.80,0001.45,0001.31
2022-12-05 10:36:00,,0816.2,5.00,0.00,23.5,22.2,00.0,32.4,25.3,12.6,0000.0,0001.77,0001.43,0001.29
2022-12-05 10:37:00,,0816.1,5.00,0.00,23.5,22.2,00.0,32.4,25.4,12.6,0000.0,0001.76,0001.42,0001.28
2022-12-05 10:38:00,,0816.2,4.99,0.00,23.5,22.2,00.0,32.4,25.4,12.6,0000.0,0001.70,0001.38,0001.25
2022-12-05 10:39:00,,0816.3,4.99,0.00,23.5,22.2,00.0,32.4,25.4,12.6,0000.0,0001.68,0001.37,0001.24
2022-12-05 10:40:00,,0816.3,5.01,0.00,23.5,22.2,00.0,32.4,25.4,12.5,0000.0,0001.68,0001.38,0001.25
2022-12-05 10:41:00,,0816.3,5.01,0.00,23.5,22.2,00.0,32.4,25.4,12.6,0000.0,0001.66,0001.38,0001.26
2022-12-05 10:42:00,,0816.3,4.99,0.00,23.5,22.1,00.0,32.4,25.3,12.5,0000.0,0001.70,0001.41,0001.29
2022-12-05 10:43:00,,0816.1,4.99,0.00,23.5,22.0,00.0,32.4,25.3,12.5,0000.0,0001.79,0001.45,0001.32
2022-12-05 10:44:00,,0816.2,5.02,0.00,23.4,21.9,00.0,32.4,25.2,12.5,0000.0,0002.28,0001.50,0001.33
2022-12-05 10:45:00,,0816.1,5.01,0.00,23.4,21.9,00.0,32.4,25.2,12.7,0000.0,0003.32,0001.54,0001.34
2022-12-05 10:46:00,,0816.2,4.99,0.00,23.4,21.9,00.0,32.4,25.2,12.9,0000.0,0003.46,0001.60,0001.36
2022-12-05 10:47:00,,0816.1,5.00,0.00,23.4,21.9,00.0,32.4,25.2,12.9,0000.0,0003.50,0001.63,0001.38
2022-12-05 10:48:00,,0816.1,5.00,0.00,23.4,21.9,00.0,32.4,25.2,12.7,0000.0,0003.55,0001.65,0001.38
2022-12-05 10:49:00,,0816.1,5.01,0.00,23.4,22.0,00.0,32.4,25.2,12.8,0000.0,0003.57,0001.67,0001.40
2022-12-05 10:50:00,,0816.0,5.00,0.00,23.4,22.0,00.0,32.4,25.2,12.9,0000.0,0003.58,0001.68,0001.42
2022-12-05 10:51:00,,0815.9,4.98,0.00,23.4,22.0,00.0,32.4,25.2,12.9,0000.0,0003.64,0001.70,0001.42
2022-12-05 10:52:00,,0816.0,5.00,0.00,23.4,21.9,00.0,32.3,25.2,13.1,0000.0,0003.66,0001.71,0001.43
2022-12-05 10:53:00,,0816.0,5.00,0.00,23.4,21.9,00.0,32.3,25.1,13.1,0000.0,0003.62,0001.68,0001.42
2022-12-05 10:54:00,,0815.9,5.00,0.00,23.3,21.9,00.0,32.3,25.1,13.1,0000.0,0003.54,0001.65,0001.42
2022-12-05 10:55:00,,0815.9,5.02,0.00,23.3,21.9,00.0,32.3,25.1,13.2,0000.0,0003.02,0001.62,0001.41
2022-12-05 10:56:00,,0815.8,4.97,0.00,23.3,21.9,00.0,32.3,25.2,13.2,0000.0,0002.07,0001.59,0001.42
2022-12-05 10:57:00,,0815.8,5.02,0.00,23.3,21.9,00.0,32.3,25.2,13.0,0000.0,0002.03,0001.60,0001.43
2022-12-05 10:58:00,,0816.0,4.98,0.00,23.3,21.9,00.0,32.3,25.1,13.0,0000.0,0002.07,0001.64,0001.46
2022-12-05 10:59:00,,0815.9,5.01,0.00,23.3,21.8,00.0,32.3,25.1,13.2,0000.0,0002.06,0001.66,0001.48
